Wind_Speed
9 9 9 9 9 9 9 10 10 11 11 11 11 10 11 11 11 11 10 10 9 9 9 10 11 11 10 10 10 10 10 10 10 11 11 11 11 12 13 14 15 16 17 17 18 19 20 23 18 14 15 14 13 12 11 11 11 12 13 15 17 20 23 24 24 23 22 21 19 18 17 16 15 14 14 14 14 15 15 16 17 17 18 18 18
10 10 10 9 10 10 10 10 11 11 11 11 10 10 10 10 10 10 10 9 8 9 9 9 9 9 10 10 10 11 11 11 11 11 11 11 11 11 12 12 13 14 16 17 19 20 21 23 18 14 16 15 14 14 12 11 11 11 12 12 14 16 19 22 24 25 25 24 23 22 20 19 18 17 16 15 15 15 16 17 17 18 19 18 18
11 11 10 10 10 10 11 11 11 11 11 10 10 9 9 9 9 9 8 7 6 7 8 8 7 7 8 9 10 10 10 10 10 10 11 11 11 11 12 12 12 13 14 15 17 20 21 23 20 15 15 13 12 12 11 10 10 11 11 12 13 14 15 18 21 24 26 27 26 25 24 22 21 20 18 17 16 16 17 18 18 19 19 20 19
11 11 10 11 11 11 10 10 10 10 10 10 10 9 9 9 8 8 7 6 6 6 7 8 7 6 7 8 9 9 9 9 10 10 10 11 11 12 12 12 13 13 14 15 17 19 21 24 23 17 14 15 13 11 11 11 11 12 12 12 12 13 15 16 18 22 25 29 30 27 26 24 23 22 21 19 18 17 17 18 19 20 20 20 21
11 11 11 12 12 11 10 10 10 10 10 10 10 9 9 8 8 7 7 6 6 6 8 9 8 7 7 8 9 9 8 8 9 9 9 9 10 11 12 12 13 14 15 16 17 19 21 23 24 18 15 17 16 15 15 14 14 15 14 14 13 14 15 16 18 22 25 29 30 28 27 26 23 23 23 22 20 19 18 19 20 20 20 21 22
11 12 12 12 11 11 10 10 10 11 11 10 10 10 10 9 9 9 8 8 7 7 9 11 11 9 9 10 10 10 10 10 10 10 10 9 9 10 11 12 13 14 15 17 17 18 20 22 22 19 15 15 16 16 17 17 17 17 17 16 16 16 16 17 19 22 25 28 29 28 27 26 25 24 25 25 24 22 21 20 21 21 21 21 22
12 12 12 11 11 10 9 10 10 11 12 12 11 11 11 11 11 11 11 10 10 10 10 12 13 12 11 11 11 11 11 11 11 12 12 11 11 10 11 13 14 15 16 16 16 17 19 20 21 20 17 14 14 15 15 16 17 18 19 19 18 17 17 18 20 22 25 27 28 27 25 25 26 26 26 26 26 25 24 23 22 22 22 22 22
11 11 11 11 11 11 10 10 10 10 11 12 12 12 12 12 12 13 13 13 12 12 12 13 14 15 14 14 13 13 12 13 13 13 13 13 13 12 12 13 15 15 16 16 16 17 18 20 21 21 20 16 13 13 13 14 15 16 18 19 19 18 18 20 22 23 27 27 25 23 22 24 25 26 27 27 27 27 27 26 25 24 23 23 23
11 11 10 10 11 11 11 11 10 10 10 11 12 13 13 13 13 14 14 14 14 13 13 14 16 16 16 16 15 14 14 14 14 14 15 15 14 14 14 14 15 16 16 16 17 17 19 21 22 22 22 19 15 12 12 13 14 16 17 19 20 20 20 21 23 25 27 25 21 20 21 23 24 26 28 29 29 29 28 27 26 25 24 24 23
12 11 10 9 10 11 11 12 12 12 12 13 14 15 15 14 14 15 16 15 15 14 13 14 16 17 17 17 17 16 16 15 15 16 16 16 16 16 15 15 15 16 16 17 17 18 19 21 23 24 24 22 18 14 13 13 13 15 17 19 20 22 22 22 24 26 26 23 20 20 23 24 24 25 27 28 29 30 30 27 25 26 27 26 25
12 12 11 10 10 11 12 13 13 14 15 15 16 17 17 16 16 16 17 16 16 16 14 14 15 17 17 17 18 17 17 17 17 17 17 18 18 18 18 17 16 16 17 18 19 19 20 22 23 25 25 25 22 19 16 14 14 15 16 17 19 22 23 24 25 26 27 24 21 22 24 25 23 23 24 25 27 29 29 28 27 28 29 28 27
12 12 12 12 12 12 13 14 15 16 16 17 17 18 18 18 17 17 17 17 18 18 17 16 16 17 18 18 19 19 19 18 19 19 18 19 19 20 20 19 18 18 19 20 20 21 22 23 24 25 26 26 25 23 20 17 16 16 17 18 19 21 23 25 26 27 27 25 24 25 26 25 22 22 23 25 26 27 27 28 30 31 32 30 29
11 12 12 13 13 14 14 15 16 17 17 18 18 19 19 18 18 17 17 18 18 18 19 19 19 19 20 20 20 21 21 21 20 20 20 21 22 22 22 22 21 21 22 22 23 24 24 25 26 27 27 28 28 27 25 22 20 19 19 20 21 22 23 24 25 26 26 26 26 26 27 25 23 23 24 25 25 25 25 26 28 30 32 32 30
11 12 12 13 14 14 15 16 17 17 18 18 18 19 19 19 19 18 18 18 19 19 19 19 20 20 21 23 23 24 24 23 23 23 23 23 24 25 25 24 24 24 25 25 26 27 28 28 29 29 30 30 30 30 29 27 25 23 22 23 23 24 25 25 26 26 27 27 26 25 26 25 24 24 24 24 24 24 24 24 25 27 29 30 32
11 11 12 13 14 15 15 16 17 18 18 19 19 19 20 20 20 20 20 20 20 21 21 21 22 22 23 24 25 26 26 26 27 27 27 26 27 28 28 28 28 28 28 29 29 30 30 31 32 32 33 33 33 33 33 32 31 29 27 26 25 26 26 27 28 28 28 29 28 27 26 25 23 24 25 25 25 25 24 24 24 24 25 27 29
11 12 13 13 14 15 16 17 17 18 19 19 20 20 21 21 21 22 22 22 23 23 24 24 25 25 26 27 27 28 28 28 28 29 30 30 30 31 32 31 31 32 32 32 32 33 33 34 34 35 35 36 36 36 36 37 36 35 33 31 29 28 28 28 29 30 29 29 30 30 29 27 25 25 26 26 26 26 25 23 23 23 24 25 26
11 12 13 14 15 15 16 17 18 18 19 20 20 21 21 22 22 23 23 24 25 25 26 27 27 28 29 30 31 31 31 31 31 29 29 30 31 33 34 35 35 35 35 35 36 36 36 36 37 38 38 38 38 38 38 39 39 39 37 36 34 32 31 30 31 32 32 31 32 32 32 30 28 27 26 25 26 27 26 25 24 24 25 26 25
12 13 14 14 15 16 17 18 18 19 20 20 21 21 22 22 23 24 25 26 26 27 27 27 28 29 30 31 32 33 33 34 34 33 31 29 29 31 32 34 35 36 36 37 38 39 39 39 39 40 41 41 41 41 40 41 41 41 41 40 38 37 35 33 33 33 34 34 33 34 34 33 31 29 27 25 25 26 27 27 26 26 27 27 26
13 14 15 15 16 17 18 19 19 20 20 21 22 23 24 24 25 25 26 26 26 26 26 26 25 25 26 27 28 30 32 33 34 35 34 30 27 28 29 30 31 32 34 35 37 38 38 38 39 40 41 42 42 42 42 42 42 42 43 43 42 40 38 37 35 35 35 36 36 36 36 35 34 31 28 26 25 25 26 28 28 26 26 27 27
14 15 16 17 17 18 19 19 20 21 22 23 24 24 24 24 23 24 24 24 24 24 25 25 24 24 23 23 24 24 26 28 29 32 34 33 29 26 26 27 27 26 29 31 33 35 36 36 36 37 38 39 40 41 41 41 41 42 43 44 43 43 42 40 38 37 37 37 37 37 37 36 35 33 30 27 25 25 24 27 29 28 27 27 27
15 16 16 17 17 18 18 19 21 22 23 23 23 22 22 21 21 21 21 22 22 23 23 23 24 25 24 24 23 23 23 24 27 29 32 35 34 29 26 28 27 24 25 28 29 29 32 33 33 34 35 36 36 38 39 39 38 39 41 43 43 43 43 42 41 39 38 39 39 38 37 37 36 35 33 29 26 25 24 25 28 30 30 30 29
15 15 15 15 16 17 18 19 20 21 20 20 19 18 18 18 19 19 20 20 20 21 22 22 23 24 25 25 25 25 25 25 27 29 31 35 37 35 32 31 31 26 25 29 30 28 28 30 30 31 33 34 34 35 36 37 37 37 38 39 41 42 42 42 42 41 40 39 40 40 39 38 37 36 34 31 28 26 26 25 26 29 32 33 32
14 13 13 14 14 15 16 17 18 18 18 17 17 17 17 17 18 18 19 20 20 21 22 23 23 24 25 26 27 28 29 30 30 32 34 35 38 38 36 35 35 31 26 28 31 31 30 29 29 31 32 32 33 34 34 35 36 37 37 38 38 39 40 41 41 41 41 41 41 41 41 40 39 37 35 33 30 29 28 27 27 28 30 33 33
13 12 13 13 14 15 15 16 16 16 16 17 17 17 17 18 18 19 20 21 22 23 23 24 25 26 27 28 30 31 32 33 34 34 35 37 38 40 39 38 38 36 31 29 29 30 31 30 30 32 32 32 33 33 34 34 34 35 37 38 38 37 38 39 40 41 42 42 42 42 43 43 41 39 37 34 31 31 31 30 29 28 28 31 34
13 13 13 14 15 16 16 17 17 17 17 17 18 18 19 20 21 21 22 23 24 25 26 27 28 29 30 31 32 33 33 34 35 36 36 37 39 41 42 42 42 41 39 37 34 33 32 31 31 32 33 33 34 35 36 37 35 34 36 38 39 39 38 37 39 40 41 42 43 43 44 45 44 40 38 36 33 33 33 33 31 29 28 30 32
14 14 15 15 16 17 17 18 18 19 19 20 20 21 22 23 24 24 25 26 27 28 29 31 31 32 32 32 33 33 34 34 35 37 38 39 41 43 44 45 46 46 45 44 43 41 39 37 36 35 36 36 36 36 37 38 38 37 36 37 38 39 39 38 38 39 40 41 43 44 45 46 46 43 39 37 36 35 34 34 33 31 30 29 29
16 16 16 16 17 17 18 19 20 21 22 23 24 25 25 26 26 27 28 30 31 32 32 33 33 33 33 33 33 34 35 36 37 38 39 40 42 44 46 48 49 49 48 48 48 48 47 46 44 41 39 39 39 39 39 39 40 40 39 38 37 37 37 37 38 38 39 40 42 43 44 45 46 45 41 38 38 38 36 35 34 33 32 30 28
18 17 17 18 18 19 20 21 23 24 26 27 27 28 28 28 29 30 31 32 33 33 33 33 33 33 34 34 34 35 36 37 38 38 39 41 42 43 45 48 50 52 52 51 50 50 50 50 49 47 45 43 42 41 41 41 41 41 42 41 40 38 36 35 36 38 39 39 41 43 44 44 45 46 43 39 39 40 38 35 35 35 34 32 29
20 20 20 21 22 23 25 26 28 30 30 31 31 31 31 31 31 32 33 33 33 33 32 33 33 33 34 35 35 36 37 37 38 39 40 41 42 43 43 44 47 50 53 55 53 52 51 50 50 49 48 47 46 44 43 43 43 43 44 44 44 43 40 37 36 37 39 39 40 42 43 43 43 44 44 41 39 40 40 38 36 36 35 34 31
22 23 23 24 25 27 29 31 33 34 34 34 33 33 32 32 33 33 33 33 32 32 33 33 33 34 34 35 36 37 38 38 39 40 41 41 42 42 43 43 44 46 50 53 54 52 51 50 48 47 48 48 47 47 45 43 42 43 45 46 46 46 44 42 39 38 39 39 40 41 42 43 43 43 44 42 39 39 41 40 38 37 37 35 32
24 25 25 27 28 31 33 35 36 36 36 35 34 33 33 33 33 33 33 33 33 33 33 33 34 35 35 36 37 38 38 39 40 40 41 42 42 42 42 42 42 43 44 48 51 51 48 48 47 44 44 45 44 44 43 42 41 40 41 44 46 47 47 45 43 40 39 40 40 41 43 43 43 42 43 43 41 40 40 39 40 39 38 36 33
25 27 28 30 32 34 36 37 38 38 37 35 34 34 34 33 33 33 32 32 33 33 33 34 35 36 37 38 38 39 40 40 41 41 41 41 41 41 41 41 40 40 41 42 46 47 43 42 42 39 39 40 39 39 40 39 39 38 36 38 40 44 47 47 46 43 41 40 40 41 43 43 43 42 42 43 44 42 40 39 39 40 39 37 34
27 29 30 32 34 35 37 39 40 39 37 35 34 34 34 33 33 33 33 33 33 34 34 35 36 37 38 39 39 40 41 41 41 41 41 40 40 39 39 39 38 38 38 39 41 43 40 35 35 34 34 36 37 37 39 39 39 38 37 36 36 39 43 46 48 45 43 41 40 40 42 43 42 42 42 42 43 43 41 39 39 40 40 38 35
29 30 32 33 35 36 38 40 41 39 37 35 34 34 33 33 33 33 33 34 34 35 35 36 37 38 39 40 40 41 41 41 41 41 40 40 40 40 39 39 39 38 38 38 39 40 38 33 32 33 33 35 36 36 37 38 39 40 41 39 37 37 38 41 46 47 44 42 40 40 42 43 41 41 41 41 42 43 42 40 40 40 40 38 35
29 31 33 34 35 37 40 42 41 38 36 34 34 33 33 33 33 34 34 35 35 36 36 37 38 39 40 41 41 42 42 42 41 41 41 40 40 40 40 39 39 39 39 40 40 41 40 35 34 36 36 35 36 36 37 38 39 41 43 43 41 39 39 38 41 44 45 43 40 39 41 43 41 39 40 41 41 41 41 40 39 40 40 38 35
30 32 33 35 36 39 41 42 40 37 35 34 34 33 33 33 34 34 35 36 36 37 38 39 40 41 42 43 43 44 44 43 42 41 40 40 39 39 38 37 38 38 39 39 40 42 42 39 37 37 37 36 36 37 39 41 41 42 42 43 42 40 40 39 39 41 44 43 41 39 40 42 41 39 39 40 40 40 40 40 39 39 40 38 36
32 33 35 36 38 40 42 40 37 35 35 34 34 33 33 34 35 35 36 36 37 39 40 41 41 42 43 44 45 45 44 44 42 41 40 39 39 37 36 35 36 37 37 38 39 39 39 38 35 34 35 36 37 38 40 41 41 40 39 39 39 39 38 39 39 39 42 43 42 41 40 41 41 40 39 39 39 39 39 39 38 38 39 38 37
33 35 36 38 39 41 40 37 35 34 34 33 33 33 34 34 35 35 36 37 39 40 40 41 42 43 44 44 45 44 44 43 42 41 40 39 38 37 35 34 35 35 35 36 37 37 36 35 35 34 35 37 38 38 39 39 39 38 37 37 37 36 35 36 37 38 39 41 42 42 40 39 40 40 39 38 38 38 38 38 37 37 38 38 37
34 36 38 39 40 39 37 35 34 33 33 33 33 33 34 34 35 35 37 38 39 40 41 41 42 43 43 43 44 44 43 43 42 41 41 40 39 37 35 34 35 35 34 34 34 34 34 35 35 36 37 38 39 39 39 39 38 37 37 38 38 35 33 32 33 35 37 38 40 41 41 40 39 39 38 37 37 37 37 38 37 36 37 36 36
35 38 39 39 38 35 34 33 32 32 32 32 33 33 34 34 35 36 37 37 38 39 40 41 42 42 43 42 43 43 43 42 41 41 40 40 39 38 35 34 35 34 32 32 32 32 33 34 36 37 39 39 40 40 39 39 39 38 37 39 40 37 33 30 29 31 34 35 37 40 42 41 39 38 37 38 38 37 37 37 37 35 35 35 34
37 39 39 37 34 32 32 32 31 31 31 32 32 33 33 34 35 36 37 38 38 39 40 41 41 42 42 42 42 42 41 40 39 39 39 39 38 37 36 34 34 34 32 31 31 32 33 35 37 39 41 41 41 40 40 40 40 40 39 38 38 37 35 31 27 28 31 32 33 38 41 40 39 38 36 37 38 37 37 37 36 35 35 33 33
39 39 36 33 32 31 31 30 30 30 31 32 32 33 34 35 36 37 37 38 40 40 41 41 41 41 41 41 41 41 40 39 38 38 38 37 36 36 35 34 33 33 32 32 32 33 34 36 39 41 42 42 42 41 41 40 41 42 42 39 36 34 34 32 27 25 28 30 30 36 41 39 37 37 35 35 37 37 36 36 36 35 34 32 31
39 36 33 31 30 30 30 29 30 30 31 31 32 33 35 36 36 37 38 39 40 41 42 41 41 41 41 41 40 40 39 39 38 38 38 37 36 34 33 33 33 33 33 33 33 34 35 37 39 41 42 43 43 42 41 40 41 43 43 38 33 30 31 31 27 23 25 28 29 34 40 39 36 35 34 35 36 35 35 35 34 33 32 30 30
36 32 30 29 29 29 28 29 29 30 30 31 33 34 35 36 37 37 38 39 40 41 41 41 42 42 41 40 40 40 40 39 39 38 38 37 36 34 32 32 33 33 34 35 35 35 37 39 40 42 43 44 45 43 42 43 42 43 43 37 31 27 28 29 26 22 22 25 29 33 40 40 35 33 32 32 33 34 34 33 33 32 31 29 28
32 29 29 28 28 27 27 28 29 29 30 32 33 34 35 36 37 37 38 39 40 41 41 41 42 41 41 40 40 40 40 39 39 39 38 38 38 35 33 32 33 33 33 34 35 35 36 39 41 43 43 45 47 46 46 47 45 42 40 36 30 26 25 25 24 22 21 23 27 31 38 39 34 32 31 28 28 31 32 32 31 30 29 28 27
29 28 27 27 26 26 27 27 28 29 30 32 33 33 34 35 36 37 38 39 39 40 41 41 42 41 41 41 41 40 40 40 40 40 40 40 40 39 36 34 33 33 33 33 34 34 35 36 38 40 41 43 47 48 48 48 45 40 37 34 28 24 23 21 20 21 21 20 24 30 37 36 32 31 30 27 26 28 29 29 28 28 28 27 26
27 27 26 25 25 25 26 27 28 29 30 31 32 33 33 35 36 36 37 38 38 39 39 40 41 41 41 41 41 41 41 41 42 42 42 42 42 41 39 36 34 34 33 34 34 34 34 34 35 36 38 40 43 46 47 45 41 37 35 32 26 22 20 18 18 19 18 17 21 29 35 33 30 31 30 27 26 27 27 27 26 26 26 25 24
26 25 25 24 25 25 26 27 28 28 29 30 31 32 33 34 35 36 36 36 37 38 39 40 40 41 42 42 41 41 42 42 42 43 44 44 44 43 42 38 36 35 34 33 32 32 32 33 34 35 35 36 38 41 44 45 41 36 32 29 23 19 17 16 17 15 14 18 22 25 30 30 29 32 30 27 27 27 26 25 23 23 23 23 23
25 24 24 24 25 25 26 27 28 28 29 30 31 32 33 33 34 35 35 36 36 38 38 39 40 41 41 42 41 42 42 42 43 44 44 45 45 45 44 41 37 36 34 32 30 30 31 32 34 35 34 34 35 37 41 44 41 35 30 26 21 17 14 12 11 9 13 22 23 20 19 22 26 30 29 27 27 26 24 23 21 20 21 20 21
24 23 23 24 25 26 26 27 28 28 29 30 31 32 32 33 34 34 35 36 37 37 37 38 39 40 40 41 41 42 42 43 44 45 45 46 46 46 45 43 39 36 34 33 32 32 32 32 32 32 32 32 33 33 37 42 39 33 28 24 18 13 9 4 2 7 14 20 19 13 11 15 22 27 26 27 27 26 24 22 21 19 19 18 19
22 22 23 24 24 25 26 27 28 29 30 30 31 32 33 33 34 35 35 36 37 37 37 37 39 39 40 40 41 41 42 43 44 45 46 47 47 47 46 43 40 37 35 34 34 34 35 34 33 32 31 32 32 30 33 39 38 29 23 19 13 9 8 6 8 9 11 14 13 11 11 14 20 23 24 26 28 27 24 23 21 20 19 18 18
Wind_Direction
314 314 314 314 312 308 305 302 304 305 305 306 306 304 302 303 305 306 305 302 298 294 289 283 280 280 280 279 278 280 283 286 287 286 286 287 290 293 295 297 298 298 298 298 295 294 292 291 295 300 296 302 313 313 315 312 304 296 288 284 280 273 269 268 269 268 265 262 261 262 263 263 262 258 254 251 249 248 244 241 237 232 230 230 232
309 309 310 308 304 300 298 297 297 297 298 301 303 301 299 299 299 299 299 298 293 288 284 280 278 276 273 271 270 271 275 280 284 286 288 289 289 290 292 294 296 298 297 297 297 295 293 292 299 315 314 310 307 308 315 311 305 299 291 286 284 280 273 269 267 267 267 265 262 260 259 259 260 258 254 252 249 248 247 244 240 234 231 229 229
306 306 307 306 304 303 302 300 299 299 302 306 310 311 309 307 305 305 308 308 300 292 289 292 297 292 282 278 275 277 281 287 292 294 296 296 297 295 294 297 297 298 297 295 294 292 292 291 296 318 326 321 313 309 313 311 304 298 291 283 277 276 275 273 270 266 265 264 261 257 256 256 258 259 257 254 251 249 248 246 243 238 233 229 228
303 306 310 313 315 318 318 316 313 312 315 317 322 326 323 321 319 319 321 322 316 307 300 302 312 311 298 291 288 289 292 298 302 302 303 301 301 301 300 299 299 299 296 294 292 291 291 290 292 302 308 311 318 316 310 305 300 297 292 283 274 269 268 270 270 265 261 260 257 253 251 251 252 256 259 258 255 252 250 249 245 242 236 231 228
306 311 315 318 322 327 331 332 331 331 331 329 331 334 332 329 327 327 328 327 321 312 305 305 313 314 305 302 301 302 303 305 307 308 309 307 305 302 300 298 297 298 296 293 292 292 291 290 294 300 299 299 306 307 305 304 300 297 292 283 274 268 266 267 264 259 258 257 256 254 252 250 248 250 255 256 255 252 249 249 247 245 240 234 231
312 315 317 319 322 329 336 340 340 340 338 335 333 331 330 328 326 326 326 325 319 311 305 305 309 311 306 304 305 307 308 308 308 307 307 307 305 301 298 296 296 296 295 295 294 292 290 290 293 297 298 296 297 300 301 301 299 296 294 289 281 273 269 267 261 256 255 256 257 258 256 255 251 249 252 254 254 251 247 246 246 246 243 239 235
315 317 319 321 324 331 340 343 341 338 336 333 329 326 324 323 321 320 319 318 315 308 303 301 302 305 306 303 303 305 306 306 305 304 303 303 302 299 297 295 295 296 296 297 298 294 291 291 292 294 295 294 296 297 294 292 292 292 291 291 288 283 277 271 265 260 257 255 256 258 258 257 253 248 249 252 253 251 246 243 243 244 243 241 238
318 321 322 324 329 336 340 340 339 336 332 328 323 320 317 315 313 311 309 308 307 304 301 297 295 298 301 301 301 303 302 301 301 300 300 300 299 298 297 295 296 297 298 298 299 297 294 293 293 294 297 299 299 295 286 280 280 282 284 286 286 286 283 277 271 266 262 260 261 264 263 262 258 252 248 248 251 250 246 242 241 241 242 240 238
324 328 330 330 332 334 333 333 333 330 325 319 314 311 309 307 304 302 301 300 301 300 298 296 293 293 296 298 299 300 299 298 297 296 296 296 296 296 295 293 293 295 297 297 296 296 295 295 295 296 298 301 302 294 284 277 275 274 274 276 278 280 280 278 276 274 271 272 276 276 271 265 261 257 251 246 247 248 246 244 241 240 241 241 240
329 333 339 339 333 327 325 326 326 323 318 313 309 307 306 304 301 298 297 298 299 297 295 293 292 292 294 296 298 299 298 298 296 294 293 292 293 293 292 290 289 290 291 292 292 292 291 292 294 295 296 298 299 294 285 279 276 275 272 270 271 272 274 274 276 279 281 285 285 280 272 265 259 258 259 256 253 252 250 250 247 243 242 240 240
328 332 338 339 332 324 323 323 321 319 317 314 311 308 306 304 302 299 298 300 301 299 296 293 293 294 294 295 296 297 297 296 295 293 291 291 291 291 290 287 286 286 287 287 287 287 287 287 288 290 292 294 295 293 287 280 274 272 271 269 268 268 268 269 271 275 282 286 284 277 272 270 270 269 269 268 265 260 255 252 249 246 243 240 239
327 330 335 334 329 325 322 322 321 319 318 316 313 310 307 304 302 300 300 302 303 304 303 299 296 295 294 294 294 293 292 291 291 291 289 288 288 288 287 286 285 284 285 286 286 285 284 284 284 286 288 290 291 290 287 281 275 270 269 268 268 267 267 269 270 272 276 280 280 277 275 276 279 276 270 267 266 265 262 254 248 245 242 240 239
331 333 334 332 328 326 325 324 322 320 318 316 314 311 309 306 303 301 300 301 301 302 304 304 301 299 296 295 294 292 290 289 288 287 286 285 284 285 285 283 283 283 283 284 284 284 284 283 284 284 286 287 287 287 286 282 277 271 268 266 266 267 267 268 270 272 274 275 275 276 277 279 278 274 270 268 269 272 274 268 260 254 247 243 243
336 336 336 333 329 328 328 326 323 321 320 318 317 314 312 310 307 304 301 299 299 299 300 301 300 299 297 295 293 292 290 289 287 285 284 284 284 283 283 282 281 280 281 281 282 283 283 283 283 284 284 285 285 286 285 283 280 275 269 265 264 266 268 270 271 272 273 274 275 275 277 279 278 276 272 270 270 271 272 271 270 266 257 248 245
339 339 337 333 330 329 328 326 325 324 323 322 319 316 314 311 309 306 304 302 300 299 298 298 296 295 293 292 291 291 289 288 288 287 285 284 284 283 282 282 281 280 279 279 280 280 281 281 282 282 283 283 284 285 284 284 282 279 274 269 266 266 268 271 272 273 274 276 278 276 275 277 278 278 275 271 269 267 265 265 267 267 264 256 250
343 341 338 334 331 329 328 327 326 325 324 322 319 317 313 310 308 306 304 302 300 299 297 296 295 294 292 290 289 287 285 284 283 284 286 285 285 284 284 283 282 282 281 281 280 280 280 281 281 281 281 281 282 282 283 283 282 281 279 276 272 268 267 268 270 273 274 276 278 278 276 276 277 277 277 273 268 266 264 261 260 261 262 261 259
341 338 335 332 330 328 327 326 325 324 322 320 318 315 313 310 307 305 303 301 300 299 298 297 296 295 294 292 291 288 286 284 282 280 282 284 285 284 284 284 283 283 282 282 282 282 281 281 282 282 281 280 280 280 281 281 281 280 279 278 276 272 270 268 269 271 273 274 275 277 277 276 276 275 275 274 269 264 261 259 256 255 256 257 259
335 332 330 329 329 328 327 325 324 322 320 318 316 315 314 312 310 307 304 302 302 301 300 300 299 298 296 296 295 294 292 290 287 283 279 279 282 283 283 282 283 283 283 282 282 282 282 282 282 282 282 281 280 280 279 279 279 279 279 278 277 275 273 271 270 271 273 273 273 276 277 277 276 275 274 273 271 265 260 258 256 253 252 254 256
328 327 326 326 327 327 327 326 324 322 320 318 317 316 316 315 314 312 309 308 306 305 303 302 302 302 301 300 299 297 296 295 294 291 287 282 279 282 284 284 282 282 283 283 283 282 282 282 282 281 281 281 280 279 278 277 277 277 277 277 277 276 274 273 271 271 272 273 273 274 275 277 277 277 274 271 270 267 261 257 257 254 252 253 253
327 326 325 325 326 327 327 325 324 322 321 320 320 320 319 319 318 316 314 313 311 309 307 306 305 303 303 301 299 297 297 298 298 298 298 294 288 283 283 283 283 284 284 283 283 283 283 282 281 281 280 280 279 278 277 277 276 276 275 275 275 276 275 273 272 271 271 272 272 272 273 275 276 276 275 271 268 268 263 257 256 255 252 251 249
329 328 327 326 327 326 326 325 324 324 324 324 324 323 322 321 319 317 317 316 315 313 312 311 309 305 303 300 298 297 297 299 300 301 302 301 299 294 286 281 279 280 282 281 279 280 281 281 280 280 279 279 279 279 278 277 276 275 274 273 273 274 274 273 272 271 270 270 271 271 271 272 273 274 274 273 268 265 263 258 255 254 253 252 250
332 331 330 328 326 325 326 327 328 328 328 327 326 324 324 322 321 320 318 317 316 315 314 313 311 309 307 306 304 302 301 301 301 301 302 302 302 301 298 291 285 280 278 278 278 277 275 277 278 277 275 276 277 278 278 278 277 276 274 273 272 272 272 272 271 271 269 268 269 270 270 270 270 271 272 271 268 262 260 259 256 254 253 252 251
336 333 332 330 330 332 335 337 337 335 333 331 329 327 326 324 323 321 319 318 316 315 315 315 315 314 314 313 313 312 310 309 307 306 305 304 303 302 302 301 296 292 286 280 280 280 278 276 275 274 272 272 272 273 274 275 276 276 275 274 272 271 270 269 269 269 268 267 266 267 268 268 267 267 268 267 266 263 259 257 256 255 254 253 251
344 345 345 345 348 350 351 350 348 345 341 338 335 331 329 326 324 322 320 319 319 319 319 319 319 319 318 318 318 317 316 315 313 311 310 309 308 307 307 307 304 303 301 294 289 287 286 284 280 276 274 272 271 270 270 269 270 272 274 274 273 271 269 268 267 266 265 265 265 265 266 266 265 264 263 262 262 262 260 257 256 256 255 254 252
3 4 4 1 1 359 357 354 352 349 345 341 337 333 331 328 326 326 325 325 325 324 324 323 323 322 322 320 319 318 317 315 314 314 313 313 312 311 311 311 309 309 309 306 302 297 295 293 289 285 281 277 273 270 269 268 267 266 268 271 271 271 268 266 266 265 264 264 263 262 263 265 265 263 261 260 258 258 259 258 256 255 253 253 253
13 12 10 6 3 359 357 354 352 349 345 341 338 336 334 332 331 331 330 329 329 328 328 327 325 324 323 321 319 318 317 316 316 315 315 314 313 313 312 312 311 310 310 309 307 305 302 300 296 292 288 284 279 274 272 271 270 269 267 267 269 270 269 267 265 264 264 263 262 261 261 262 264 263 260 259 258 256 257 257 256 254 252 251 252
13 11 8 4 1 357 354 351 349 347 345 343 341 339 338 336 334 333 332 331 331 330 328 327 325 323 322 321 320 319 318 317 316 316 315 313 313 312 312 312 311 310 309 308 307 306 305 303 300 297 293 288 284 281 277 275 273 272 270 268 268 268 269 268 265 263 262 261 261 261 260 259 261 262 259 257 257 256 255 255 255 254 252 250 250
11 8 5 1 358 355 353 351 350 348 346 345 343 341 339 336 335 334 333 331 330 328 327 325 324 323 322 321 320 319 318 317 316 315 314 312 312 311 310 310 309 307 306 305 304 303 302 301 299 298 295 291 288 284 280 277 274 273 271 269 267 264 263 263 262 261 260 259 259 260 260 258 259 261 260 256 256 255 253 253 253 253 252 250 248
7 4 2 360 358 356 355 353 351 349 346 344 342 339 337 335 334 333 331 329 327 326 325 324 323 323 322 321 320 319 317 316 316 315 313 312 310 309 308 307 305 305 305 304 303 302 301 300 299 297 296 293 290 287 283 280 276 273 270 269 267 264 261 258 258 258 259 258 258 258 258 258 257 258 259 257 255 254 253 253 252 251 251 250 248
4 2 1 360 358 356 355 353 349 346 343 341 339 337 335 333 332 330 329 328 327 326 325 324 323 322 321 320 320 319 318 318 316 315 314 312 311 310 308 307 306 305 305 303 303 304 304 303 302 301 298 296 294 291 288 285 281 276 272 269 267 265 263 259 256 256 256 256 257 256 257 257 256 255 257 257 255 253 252 253 253 252 250 249 248
1 0 360 359 358 356 353 349 345 342 339 337 336 334 332 331 330 329 329 328 327 326 325 324 324 323 323 322 321 320 319 318 317 316 316 314 313 312 310 309 307 305 304 303 303 306 306 305 305 305 303 301 299 297 294 291 288 284 278 273 269 267 265 262 257 254 253 254 254 255 254 255 256 254 253 255 255 253 252 252 253 253 252 250 248
358 357 357 357 355 353 349 345 341 338 336 334 332 331 330 330 330 330 329 329 327 326 326 326 326 325 324 323 322 321 321 320 320 319 318 316 315 314 313 311 310 307 306 304 304 306 308 308 308 309 307 305 305 304 301 298 295 292 288 281 274 268 265 262 259 254 251 251 251 252 252 252 253 253 252 252 254 254 252 250 250 251 252 251 249
353 352 353 352 350 347 344 340 337 335 333 331 330 330 331 331 331 330 330 329 328 328 328 328 327 326 325 324 324 323 323 323 322 322 321 320 319 318 316 314 312 310 309 307 307 308 310 311 310 310 309 307 307 305 304 302 299 296 292 287 280 273 266 262 259 255 251 248 248 249 250 249 249 250 250 250 252 253 252 248 247 248 250 250 249
347 347 347 347 344 342 339 335 333 332 330 330 330 331 331 331 332 331 330 330 329 329 329 328 328 327 326 326 326 326 326 326 326 326 325 324 323 321 319 317 316 316 314 314 313 313 315 315 313 311 310 308 306 304 302 301 300 297 294 289 284 279 272 265 261 257 252 248 245 246 247 246 245 246 248 248 249 251 252 249 245 245 247 249 248
343 343 342 341 338 336 333 331 329 329 328 329 331 331 332 333 332 332 331 331 331 331 330 330 329 329 328 329 329 330 330 330 330 330 328 327 326 324 323 322 321 321 320 319 318 318 319 321 319 315 313 310 307 306 305 304 303 300 297 293 288 282 276 270 264 258 253 248 243 242 243 243 241 242 244 245 246 248 250 249 246 244 245 246 246
339 339 337 335 333 331 329 327 327 328 329 331 332 333 333 333 333 333 332 332 332 332 332 332 332 332 332 332 333 333 333 333 333 332 330 328 327 326 324 323 323 323 322 321 319 318 318 320 319 315 313 311 310 309 309 307 305 302 298 295 292 286 277 270 265 260 254 248 241 238 239 241 239 238 240 241 243 245 247 248 246 243 242 243 242
337 335 333 332 329 327 326 325 326 328 330 332 332 333 334 333 334 334 333 333 334 334 334 334 334 335 335 335 335 335 335 335 334 332 331 329 328 326 323 323 324 324 323 321 320 318 317 318 319 317 316 315 314 314 312 309 307 304 299 295 294 292 283 270 263 259 255 249 241 235 235 239 240 238 237 237 240 242 244 246 246 243 241 241 241
337 334 331 328 325 324 324 325 327 330 331 332 333 334 334 334 334 334 335 336 336 336 336 336 337 337 337 337 336 336 336 335 334 333 331 330 329 327 324 323 324 324 323 322 320 319 319 321 323 323 322 321 319 317 315 313 311 309 304 297 295 296 292 277 262 256 254 251 243 234 231 234 238 238 236 235 237 238 240 243 244 242 241 240 240
335 333 330 326 324 323 324 326 329 331 332 332 333 334 334 334 334 335 337 337 337 337 338 338 339 339 339 338 337 337 337 336 335 334 332 331 329 328 325 323 325 325 323 322 322 322 324 326 326 326 326 325 323 320 317 315 314 314 311 303 296 294 293 284 267 255 251 250 244 234 228 229 233 237 236 234 235 236 238 240 242 242 240 239 238
332 330 327 325 323 324 325 328 330 331 332 333 334 334 334 335 336 337 338 338 338 339 340 340 340 340 339 339 339 339 338 337 336 335 333 331 330 329 326 324 326 327 324 323 325 328 330 330 329 329 328 326 324 321 319 316 314 314 312 307 301 294 290 284 272 258 250 248 243 233 226 225 228 233 235 235 234 234 235 238 240 241 241 239 237
328 327 326 324 324 325 327 330 331 332 333 334 334 334 335 336 338 338 338 339 340 341 341 341 341 340 340 341 341 340 339 338 337 335 333 332 331 330 327 325 327 330 329 326 328 332 334 335 334 333 332 329 327 324 321 319 316 313 310 306 301 294 287 282 273 260 252 248 241 230 224 223 225 228 231 235 235 233 233 236 238 240 240 239 236
325 325 325 324 325 327 330 331 332 333 333 334 334 335 337 338 339 340 340 341 342 342 342 342 342 342 342 343 342 341 339 338 337 337 336 334 333 331 329 327 328 332 332 330 332 335 337 336 335 336 336 335 333 329 324 320 317 314 310 306 300 292 283 278 273 261 253 250 240 226 219 217 221 223 225 230 232 231 231 233 235 238 239 238 236
323 324 324 325 328 330 331 332 333 334 334 334 336 337 339 340 341 341 342 343 343 343 342 342 342 344 344 344 343 341 340 340 340 340 339 337 334 332 331 331 332 335 336 334 335 336 336 335 336 338 339 339 338 335 329 324 319 316 314 311 303 290 278 274 272 261 250 248 240 223 213 212 218 219 218 223 229 230 229 231 232 234 236 236 234
323 324 325 328 330 332 333 333 334 334 335 336 339 340 341 341 341 342 343 343 344 343 343 343 343 345 345 345 344 343 342 342 342 342 341 339 338 336 336 337 338 339 339 338 337 337 334 334 336 338 339 339 339 339 334 328 324 319 317 315 308 292 275 269 269 263 249 244 239 222 209 209 215 214 210 216 225 229 229 230 230 231 233 233 232
323 325 328 330 332 333 333 334 335 336 337 339 341 341 341 341 342 343 344 344 344 344 343 343 344 345 346 346 346 345 345 344 343 343 343 342 342 341 340 341 342 342 341 340 339 338 335 334 335 336 336 336 337 337 334 330 328 323 318 314 310 297 278 266 262 262 255 242 234 220 207 205 209 208 205 207 217 225 228 228 229 229 229 231 230
325 328 330 332 333 334 334 335 336 338 339 341 341 341 341 342 344 345 345 345 345 344 344 344 345 346 346 347 348 348 346 346 346 346 346 345 345 344 344 344 344 343 342 340 339 339 338 337 334 332 332 332 333 334 334 332 329 324 319 316 312 300 284 269 257 258 255 239 227 215 204 201 205 206 204 204 210 221 227 227 226 225 225 227 227
328 330 332 334 334 334 335 337 338 340 341 341 341 342 343 344 345 345 346 346 345 344 345 346 346 346 348 349 350 349 348 348 348 348 348 347 346 346 346 346 345 344 343 341 341 341 341 340 336 332 330 330 331 332 333 333 329 325 323 324 319 305 289 270 252 251 247 225 213 207 202 202 206 205 204 203 207 216 223 222 221 221 222 223 224
331 332 334 335 335 336 337 339 340 341 342 342 342 343 345 345 346 346 346 345 345 346 348 348 348 348 349 350 351 351 351 351 350 350 350 349 348 346 346 347 347 345 344 343 342 342 342 341 340 337 334 332 332 332 332 330 327 325 327 329 323 308 290 269 252 247 230 204 194 196 200 204 206 204 201 201 206 212 215 215 215 217 219 220 221
332 334 335 336 337 338 339 340 341 342 342 343 344 345 346 346 347 347 346 346 347 349 350 350 349 350 351 351 352 352 353 352 352 351 351 350 349 348 346 347 348 346 344 343 344 344 345 344 343 339 336 334 333 333 333 330 326 324 328 330 324 308 295 283 265 236 206 196 187 185 199 206 200 196 195 198 204 209 210 208 210 213 215 216 217
334 335 337 338 339 339 340 341 342 343 344 345 347 347 347 348 348 348 347 347 350 351 351 351 352 352 352 353 353 353 354 354 353 353 352 351 350 349 347 348 349 347 345 345 346 347 347 347 343 338 335 335 334 334 338 337 332 330 333 333 330 326 332 332 224 184 188 193 189 191 216 210 189 182 185 192 200 205 206 205 207 209 211 213 214
335 338 340 340 339 340 341 342 343 344 346 347 348 348 348 349 349 348 348 350 351 352 353 354 354 354 354 354 354 355 356 356 355 354 354 352 351 350 349 349 348 348 348 350 350 349 348 347 345 340 335 335 335 338 344 345 343 344 345 340 346 13 37 75 117 141 166 185 202 224 231 206 185 176 177 188 197 201 202 205 207 208 210 212 213
Height
3141 3140 3140 3140 3139 3139 3138 3138 3137 3136 3136 3135 3135 3134 3134 3133 3132 3132 3131 3131 3131 3130 3130 3129 3128 3128 3127 3127 3126 3126 3125 3125 3125 3124 3124 3123 3123 3122 3121 3121 3120 3119 3118 3117 3116 3115 3113 3110 3110 3113 3113 3114 3115 3115 3116 3116 3115 3114 3114 3115 3115 3115 3115 3115 3115 3115 3115 3115 3115 3115 3115 3115 3115 3116 3116 3116 3117 3117 3118 3118 3119 3120 3121 3122 3123
3140 3139 3139 3139 3139 3138 3137 3137 3136 3136 3135 3135 3134 3134 3133 3132 3131 3131 3130 3130 3129 3129 3128 3128 3127 3127 3126 3125 3125 3124 3124 3123 3123 3123 3122 3122 3121 3121 3120 3120 3119 3118 3117 3116 3115 3114 3112 3110 3110 3113 3113 3113 3113 3113 3114 3114 3112 3112 3111 3112 3112 3112 3112 3112 3112 3112 3112 3113 3113 3113 3113 3113 3113 3113 3114 3114 3115 3115 3116 3116 3117 3118 3119 3120 3121
3139 3138 3138 3138 3137 3137 3136 3136 3135 3135 3134 3134 3133 3132 3132 3131 3130 3130 3129 3129 3128 3127 3127 3126 3126 3125 3124 3123 3123 3123 3122 3122 3121 3121 3120 3120 3120 3119 3119 3118 3117 3117 3116 3115 3114 3112 3111 3109 3110 3114 3113 3112 3112 3111 3111 3112 3111 3110 3109 3109 3109 3109 3109 3109 3109 3109 3110 3110 3109 3109 3110 3110 3111 3111 3112 3112 3113 3114 3114 3115 3115 3116 3117 3118 3119
3138 3137 3137 3136 3136 3136 3135 3135 3134 3133 3133 3133 3132 3131 3131 3130 3129 3129 3128 3128 3127 3127 3126 3125 3125 3124 3123 3122 3122 3122 3121 3121 3120 3120 3119 3119 3118 3118 3117 3117 3116 3115 3114 3113 3113 3111 3110 3108 3108 3113 3113 3111 3111 3111 3110 3110 3109 3109 3108 3107 3106 3106 3106 3106 3106 3106 3106 3105 3104 3105 3106 3107 3108 3109 3109 3110 3111 3112 3113 3113 3114 3114 3115 3116 3117
3137 3136 3136 3135 3135 3135 3134 3134 3133 3132 3132 3132 3131 3131 3130 3130 3129 3129 3128 3128 3127 3126 3125 3125 3124 3124 3123 3122 3121 3121 3120 3120 3119 3119 3118 3117 3117 3116 3116 3115 3114 3113 3112 3111 3111 3109 3108 3106 3106 3110 3112 3110 3110 3110 3109 3109 3108 3107 3106 3105 3104 3104 3103 3103 3102 3102 3102 3101 3100 3102 3103 3104 3106 3106 3106 3108 3109 3110 3111 3111 3112 3113 3114 3114 3115
3136 3136 3135 3135 3135 3134 3134 3133 3133 3132 3132 3131 3131 3130 3130 3129 3128 3128 3128 3127 3126 3126 3125 3124 3123 3123 3122 3121 3120 3120 3119 3119 3118 3117 3117 3116 3116 3115 3114 3114 3113 3112 3111 3110 3109 3108 3106 3105 3105 3107 3109 3109 3108 3108 3108 3107 3107 3106 3105 3104 3103 3102 3102 3101 3100 3099 3099 3098 3098 3100 3102 3103 3103 3103 3104 3105 3106 3107 3108 3109 3110 3111 3112 3112 3113
3136 3135 3135 3134 3134 3134 3134 3133 3133 3132 3132 3131 3130 3130 3129 3129 3128 3128 3127 3126 3126 3125 3124 3123 3122 3121 3121 3120 3119 3119 3118 3117 3117 3116 3115 3115 3114 3114 3113 3112 3111 3111 3110 3109 3107 3106 3105 3104 3103 3104 3106 3107 3107 3106 3106 3106 3105 3104 3103 3102 3101 3101 3100 3099 3097 3096 3096 3095 3095 3097 3099 3100 3100 3101 3102 3103 3104 3105 3105 3106 3107 3108 3109 3110 3111
3135 3135 3134 3134 3134 3134 3133 3133 3133 3132 3132 3131 3130 3129 3129 3128 3128 3127 3126 3125 3125 3124 3123 3122 3121 3120 3120 3119 3118 3118 3117 3117 3116 3115 3114 3113 3113 3112 3112 3111 3110 3109 3108 3107 3106 3105 3103 3102 3102 3101 3102 3104 3105 3104 3103 3103 3102 3102 3101 3100 3100 3099 3098 3097 3095 3094 3092 3092 3094 3097 3098 3098 3098 3099 3100 3100 3101 3101 3102 3103 3104 3105 3106 3107 3108
3135 3135 3134 3134 3133 3133 3133 3133 3133 3132 3132 3130 3129 3129 3128 3128 3127 3126 3126 3125 3124 3123 3123 3122 3121 3120 3119 3118 3117 3117 3117 3116 3115 3114 3113 3112 3111 3111 3110 3109 3108 3108 3107 3106 3104 3103 3102 3100 3100 3099 3099 3100 3102 3102 3101 3100 3100 3099 3099 3098 3097 3097 3096 3095 3093 3091 3090 3091 3094 3096 3095 3095 3095 3096 3096 3096 3097 3097 3098 3100 3102 3102 3103 3104 3105
3134 3134 3134 3134 3133 3132 3132 3132 3132 3132 3131 3130 3129 3128 3128 3127 3127 3126 3125 3124 3123 3123 3123 3122 3120 3119 3118 3117 3116 3116 3115 3115 3114 3113 3111 3110 3109 3109 3108 3107 3107 3106 3105 3104 3103 3101 3100 3099 3098 3097 3097 3097 3098 3099 3099 3098 3098 3097 3096 3096 3095 3094 3094 3093 3091 3089 3088 3090 3092 3092 3091 3090 3090 3091 3092 3093 3094 3095 3096 3098 3100 3100 3100 3102 3103
3134 3133 3133 3133 3132 3132 3132 3132 3132 3131 3130 3129 3128 3128 3127 3126 3126 3125 3124 3123 3122 3122 3121 3121 3119 3118 3117 3116 3115 3115 3114 3113 3112 3111 3110 3109 3108 3107 3106 3105 3105 3104 3103 3102 3101 3100 3098 3097 3096 3095 3095 3094 3095 3096 3096 3096 3095 3095 3094 3093 3092 3091 3091 3090 3089 3088 3086 3087 3088 3088 3086 3086 3088 3090 3090 3091 3092 3092 3093 3095 3096 3096 3097 3099 3099
3133 3133 3133 3132 3132 3132 3131 3131 3130 3130 3129 3128 3127 3126 3126 3125 3124 3124 3123 3122 3121 3120 3120 3119 3119 3117 3116 3115 3114 3113 3112 3111 3110 3109 3108 3107 3106 3105 3104 3103 3103 3102 3101 3100 3098 3097 3096 3095 3094 3093 3092 3092 3091 3092 3093 3093 3093 3092 3091 3091 3090 3089 3088 3087 3086 3086 3085 3084 3084 3084 3083 3085 3087 3088 3088 3088 3088 3088 3090 3091 3091 3092 3093 3095 3096
3133 3133 3133 3132 3132 3131 3130 3130 3129 3128 3127 3127 3126 3125 3124 3123 3123 3122 3122 3121 3120 3119 3118 3118 3117 3116 3115 3114 3113 3112 3110 3110 3109 3108 3107 3105 3104 3103 3102 3101 3101 3100 3099 3097 3096 3095 3094 3093 3092 3091 3090 3089 3088 3088 3089 3089 3090 3089 3088 3088 3087 3086 3085 3085 3083 3083 3082 3081 3082 3081 3081 3083 3085 3085 3084 3085 3085 3087 3087 3088 3088 3089 3090 3092 3094
3133 3133 3132 3132 3131 3130 3129 3129 3128 3127 3126 3126 3125 3124 3123 3122 3121 3121 3120 3120 3119 3118 3118 3117 3116 3115 3114 3112 3111 3110 3109 3108 3106 3105 3105 3104 3102 3101 3100 3099 3098 3097 3096 3095 3094 3092 3091 3090 3089 3088 3087 3085 3085 3085 3084 3085 3085 3085 3085 3084 3084 3083 3083 3082 3081 3080 3079 3079 3079 3079 3078 3080 3081 3081 3081 3082 3083 3084 3084 3084 3086 3086 3087 3089 3090
3133 3132 3131 3131 3130 3129 3129 3128 3127 3126 3126 3125 3124 3123 3122 3121 3120 3119 3118 3118 3117 3117 3116 3115 3114 3114 3113 3111 3110 3108 3107 3106 3104 3103 3102 3102 3100 3098 3097 3097 3095 3095 3094 3093 3091 3090 3089 3087 3086 3085 3084 3082 3082 3081 3080 3080 3081 3081 3081 3081 3081 3080 3080 3079 3078 3078 3077 3076 3076 3076 3076 3077 3077 3078 3078 3079 3080 3080 3080 3081 3082 3082 3083 3084 3086
3132 3131 3131 3130 3129 3129 3128 3127 3127 3126 3125 3124 3123 3122 3121 3120 3119 3118 3117 3116 3115 3115 3114 3113 3113 3112 3110 3109 3108 3107 3105 3104 3103 3101 3100 3099 3098 3096 3095 3094 3093 3092 3091 3090 3088 3087 3086 3085 3083 3082 3081 3080 3079 3078 3077 3076 3076 3076 3076 3076 3077 3077 3077 3076 3075 3074 3074 3074 3073 3072 3073 3073 3074 3075 3075 3076 3076 3076 3077 3077 3078 3079 3079 3080 3082
3131 3131 3130 3129 3129 3128 3127 3127 3126 3125 3124 3123 3122 3121 3120 3118 3117 3116 3116 3115 3114 3113 3112 3111 3110 3109 3108 3106 3105 3104 3102 3101 3100 3100 3099 3096 3095 3094 3092 3090 3090 3089 3087 3086 3085 3084 3083 3082 3080 3079 3077 3076 3075 3075 3074 3072 3071 3071 3071 3071 3072 3072 3072 3072 3072 3071 3070 3070 3070 3069 3069 3070 3071 3072 3072 3072 3072 3073 3073 3074 3075 3075 3075 3076 3077
3131 3130 3129 3129 3128 3127 3126 3125 3125 3124 3122 3121 3120 3119 3118 3117 3116 3115 3114 3113 3112 3111 3110 3109 3108 3107 3105 3104 3102 3100 3098 3097 3096 3095 3096 3096 3093 3091 3089 3088 3086 3085 3084 3082 3081 3080 3079 3078 3077 3075 3073 3072 3071 3070 3070 3069 3067 3066 3066 3066 3066 3067 3067 3067 3068 3067 3066 3066 3066 3065 3065 3065 3066 3067 3068 3069 3069 3069 3070 3070 3071 3071 3072 3072 3073
3130 3130 3129 3128 3127 3126 3125 3124 3123 3122 3121 3120 3119 3118 3117 3116 3115 3114 3112 3111 3110 3109 3108 3108 3106 3105 3103 3102 3100 3098 3096 3094 3091 3089 3089 3092 3092 3089 3086 3084 3083 3082 3080 3079 3077 3075 3075 3074 3072 3071 3069 3068 3066 3065 3065 3064 3063 3062 3061 3061 3061 3061 3062 3062 3062 3062 3062 3062 3061 3061 3061 3060 3061 3063 3064 3065 3065 3065 3066 3066 3066 3067 3068 3069 3070
3130 3129 3128 3127 3126 3125 3125 3123 3122 3121 3120 3119 3118 3117 3116 3115 3114 3112 3111 3110 3109 3108 3106 3105 3104 3103 3102 3100 3098 3096 3094 3091 3089 3085 3083 3083 3086 3087 3085 3082 3080 3079 3077 3076 3074 3071 3070 3070 3068 3067 3065 3063 3062 3060 3059 3059 3058 3057 3057 3056 3056 3056 3056 3056 3057 3057 3057 3056 3056 3056 3056 3056 3057 3058 3059 3060 3061 3061 3061 3062 3062 3063 3065 3065 3066
3129 3128 3127 3127 3126 3125 3124 3123 3122 3121 3120 3119 3118 3117 3115 3114 3113 3112 3110 3109 3108 3106 3105 3104 3102 3100 3099 3098 3096 3094 3092 3090 3087 3084 3081 3077 3077 3080 3081 3079 3077 3078 3075 3072 3070 3069 3067 3065 3064 3063 3061 3059 3058 3056 3054 3054 3053 3052 3051 3051 3051 3051 3050 3050 3051 3052 3051 3051 3051 3051 3051 3052 3052 3053 3054 3055 3056 3057 3057 3058 3058 3059 3060 3061 3062
3129 3128 3127 3126 3125 3124 3123 3123 3122 3121 3120 3119 3117 3116 3115 3113 3112 3110 3109 3108 3106 3105 3103 3101 3100 3097 3095 3094 3092 3091 3089 3088 3085 3082 3079 3075 3072 3072 3073 3072 3071 3073 3073 3069 3066 3066 3064 3062 3061 3059 3057 3055 3054 3052 3050 3049 3048 3047 3046 3045 3046 3046 3046 3045 3045 3046 3046 3045 3045 3045 3046 3047 3047 3048 3050 3051 3052 3052 3053 3053 3054 3055 3055 3056 3057
3128 3127 3126 3125 3125 3124 3124 3123 3122 3121 3119 3118 3117 3115 3114 3112 3111 3109 3108 3106 3105 3103 3101 3099 3097 3095 3093 3091 3089 3088 3085 3084 3082 3079 3076 3073 3069 3067 3067 3066 3064 3065 3067 3065 3062 3060 3059 3059 3057 3054 3053 3051 3049 3048 3046 3044 3043 3042 3041 3040 3040 3041 3041 3040 3040 3040 3040 3040 3040 3040 3040 3041 3042 3043 3045 3046 3047 3048 3049 3049 3049 3050 3051 3052 3053
3128 3127 3126 3125 3125 3124 3123 3122 3121 3120 3118 3117 3115 3114 3112 3111 3109 3108 3106 3104 3103 3101 3099 3097 3096 3094 3092 3089 3087 3085 3082 3079 3077 3075 3072 3069 3065 3062 3061 3059 3057 3057 3059 3059 3057 3056 3054 3053 3052 3049 3048 3046 3045 3043 3041 3039 3038 3037 3036 3034 3034 3035 3036 3035 3035 3035 3034 3034 3034 3034 3034 3035 3036 3037 3039 3041 3042 3043 3044 3045 3045 3046 3047 3048 3048
3127 3127 3126 3125 3124 3123 3122 3121 3120 3119 3117 3116 3114 3113 3111 3109 3108 3106 3104 3103 3101 3099 3097 3095 3093 3091 3089 3087 3084 3082 3079 3076 3073 3071 3068 3065 3062 3058 3055 3053 3050 3049 3049 3049 3049 3049 3049 3048 3046 3044 3042 3041 3039 3037 3035 3033 3033 3032 3031 3029 3028 3028 3029 3030 3030 3030 3029 3029 3029 3029 3028 3029 3030 3032 3033 3035 3036 3037 3038 3039 3041 3042 3042 3043 3044
3127 3126 3126 3125 3124 3123 3121 3120 3119 3117 3116 3114 3113 3111 3109 3108 3106 3104 3102 3100 3098 3096 3094 3092 3090 3088 3086 3083 3081 3078 3076 3073 3070 3067 3064 3061 3057 3053 3050 3047 3045 3042 3041 3041 3040 3039 3040 3040 3040 3039 3036 3034 3033 3031 3030 3028 3026 3026 3025 3024 3023 3022 3022 3024 3024 3024 3024 3023 3023 3023 3023 3023 3023 3025 3028 3029 3030 3031 3032 3034 3036 3037 3037 3038 3039
3127 3127 3126 3124 3123 3122 3121 3120 3118 3117 3115 3113 3111 3109 3108 3106 3104 3102 3100 3098 3096 3094 3092 3089 3087 3084 3082 3080 3077 3075 3072 3069 3066 3063 3060 3057 3053 3050 3045 3041 3038 3036 3035 3034 3033 3031 3030 3030 3030 3031 3029 3028 3026 3025 3024 3022 3020 3019 3018 3017 3017 3017 3017 3017 3018 3018 3018 3018 3017 3017 3017 3018 3018 3019 3022 3024 3024 3025 3026 3028 3030 3031 3032 3034 3035
3128 3127 3125 3124 3123 3122 3120 3119 3117 3115 3114 3112 3110 3108 3106 3104 3102 3100 3098 3096 3093 3091 3089 3086 3084 3081 3078 3076 3073 3070 3068 3065 3062 3059 3056 3053 3050 3047 3043 3039 3033 3029 3027 3027 3027 3026 3024 3022 3020 3021 3020 3019 3019 3018 3016 3014 3013 3012 3011 3010 3009 3010 3010 3010 3011 3011 3011 3012 3011 3011 3011 3012 3013 3013 3015 3018 3019 3019 3020 3022 3024 3026 3027 3029 3031
3127 3126 3125 3124 3122 3120 3119 3117 3115 3114 3112 3110 3108 3106 3104 3102 3100 3098 3096 3094 3091 3089 3086 3084 3081 3078 3075 3072 3069 3067 3064 3061 3058 3056 3053 3050 3047 3043 3040 3037 3032 3026 3021 3019 3018 3018 3016 3015 3013 3012 3011 3010 3009 3009 3008 3006 3005 3004 3003 3002 3001 3001 3002 3003 3003 3004 3004 3005 3005 3005 3005 3006 3007 3008 3009 3012 3014 3014 3014 3016 3018 3020 3022 3024 3026
3127 3126 3124 3123 3121 3119 3117 3116 3114 3112 3110 3108 3106 3104 3102 3100 3098 3096 3094 3091 3088 3086 3083 3080 3077 3075 3072 3069 3066 3063 3060 3057 3055 3052 3049 3045 3042 3039 3035 3032 3028 3024 3019 3013 3011 3011 3009 3006 3006 3004 3002 3000 2999 2999 2999 2998 2997 2996 2995 2994 2993 2993 2993 2995 2996 2997 2997 2998 2999 2999 2999 2999 3001 3003 3003 3005 3007 3008 3009 3010 3012 3014 3016 3019 3022
3126 3125 3123 3122 3120 3118 3116 3115 3113 3111 3109 3107 3105 3103 3101 3099 3096 3094 3091 3088 3085 3082 3080 3077 3074 3071 3069 3066 3063 3060 3057 3054 3051 3048 3044 3041 3037 3034 3030 3027 3023 3019 3016 3010 3005 3006 3004 2999 2998 2998 2994 2992 2991 2989 2989 2989 2988 2988 2986 2986 2986 2985 2985 2985 2987 2989 2990 2991 2992 2993 2993 2993 2995 2996 2998 2999 3000 3002 3004 3006 3007 3008 3010 3013 3017
3126 3124 3123 3121 3119 3117 3115 3114 3112 3110 3108 3105 3103 3101 3098 3096 3093 3091 3088 3085 3083 3080 3077 3074 3071 3068 3065 3062 3059 3056 3053 3050 3046 3043 3039 3036 3032 3029 3025 3022 3018 3014 3011 3006 3001 3000 3001 2996 2993 2993 2989 2986 2984 2982 2981 2981 2980 2980 2979 2978 2977 2977 2977 2977 2978 2980 2982 2983 2985 2986 2986 2987 2988 2990 2992 2993 2994 2996 2999 3001 3002 3003 3004 3007 3011
3125 3123 3122 3120 3118 3116 3114 3112 3110 3108 3106 3104 3101 3099 3096 3093 3091 3088 3085 3083 3080 3077 3074 3071 3068 3065 3062 3059 3055 3052 3048 3045 3042 3038 3034 3030 3026 3023 3019 3016 3013 3009 3005 3002 2997 2994 2995 2994 2990 2988 2986 2982 2980 2978 2975 2973 2972 2972 2972 2971 2970 2968 2968 2968 2969 2971 2973 2975 2977 2979 2979 2980 2982 2983 2985 2987 2988 2990 2992 2995 2996 2997 2999 3002 3006
3124 3123 3121 3119 3117 3115 3113 3111 3109 3106 3104 3102 3099 3096 3094 3091 3088 3086 3083 3080 3077 3075 3071 3068 3065 3062 3058 3055 3051 3048 3044 3040 3037 3033 3029 3025 3021 3018 3014 3010 3007 3004 2999 2996 2993 2988 2988 2988 2986 2983 2981 2978 2975 2973 2970 2968 2966 2964 2963 2963 2963 2962 2961 2961 2961 2963 2965 2967 2969 2971 2972 2974 2975 2977 2979 2981 2983 2984 2986 2988 2991 2992 2994 2997 3000
3124 3122 3120 3119 3116 3114 3112 3110 3107 3105 3102 3099 3097 3094 3091 3088 3086 3083 3080 3078 3074 3072 3069 3065 3062 3058 3054 3051 3047 3043 3039 3035 3032 3028 3023 3020 3016 3012 3008 3004 3000 2998 2994 2990 2987 2984 2982 2982 2980 2976 2974 2972 2970 2968 2965 2962 2960 2957 2954 2954 2955 2955 2955 2954 2954 2955 2957 2959 2961 2963 2965 2967 2969 2970 2972 2975 2977 2978 2980 2982 2985 2987 2989 2992 2995
3123 3121 3119 3117 3115 3113 3111 3108 3105 3102 3100 3097 3094 3092 3089 3086 3084 3081 3078 3075 3071 3068 3065 3061 3057 3053 3049 3046 3042 3038 3034 3030 3026 3023 3019 3015 3011 3007 3004 3000 2996 2993 2990 2986 2983 2980 2977 2975 2974 2971 2968 2966 2964 2961 2959 2956 2953 2950 2948 2946 2945 2946 2947 2946 2946 2947 2948 2950 2953 2955 2958 2960 2962 2963 2966 2968 2971 2973 2974 2976 2979 2982 2984 2987 2989
3122 3120 3118 3116 3114 3111 3109 3106 3103 3100 3098 3095 3092 3089 3087 3084 3081 3078 3075 3072 3068 3065 3061 3057 3053 3049 3045 3041 3037 3033 3029 3026 3022 3019 3015 3011 3007 3004 3000 2996 2993 2990 2986 2983 2980 2976 2973 2970 2968 2966 2963 2960 2958 2956 2952 2949 2946 2944 2942 2939 2937 2936 2937 2938 2939 2940 2941 2943 2945 2948 2951 2954 2956 2958 2959 2962 2965 2968 2969 2971 2973 2976 2979 2981 2984
3121 3119 3117 3115 3112 3110 3107 3104 3101 3099 3096 3093 3090 3088 3085 3082 3079 3076 3072 3069 3065 3062 3058 3054 3050 3046 3042 3037 3034 3030 3026 3022 3019 3015 3011 3007 3003 3000 2996 2993 2990 2987 2983 2980 2976 2973 2969 2965 2963 2961 2958 2955 2952 2950 2947 2943 2940 2937 2934 2933 2931 2930 2929 2929 2931 2932 2934 2935 2938 2941 2944 2947 2950 2952 2954 2956 2959 2962 2964 2966 2968 2971 2973 2976 2979
3120 3118 3116 3113 3111 3108 3105 3102 3100 3097 3094 3091 3089 3086 3083 3080 3077 3074 3070 3067 3063 3059 3055 3052 3048 3044 3040 3035 3031 3027 3023 3019 3015 3011 3007 3003 3000 2996 2993 2990 2987 2983 2980 2977 2973 2969 2966 2962 2959 2956 2954 2951 2947 2944 2941 2938 2935 2932 2928 2925 2924 2924 2923 2922 2923 2925 2926 2928 2930 2934 2938 2941 2944 2946 2949 2951 2953 2956 2959 2961 2963 2966 2968 2971 2974
3119 3116 3114 3112 3109 3106 3104 3101 3098 3095 3092 3089 3087 3084 3081 3078 3075 3072 3069 3065 3061 3058 3054 3050 3046 3042 3038 3033 3029 3024 3020 3016 3012 3008 3004 3000 2997 2993 2990 2987 2984 2980 2977 2974 2970 2966 2962 2959 2955 2952 2949 2946 2943 2939 2936 2933 2929 2927 2924 2919 2916 2916 2917 2917 2917 2917 2919 2921 2923 2926 2930 2934 2938 2941 2944 2947 2949 2951 2954 2957 2959 2961 2963 2966 2970
3118 3115 3113 3110 3107 3105 3102 3099 3096 3093 3091 3088 3085 3082 3079 3076 3073 3070 3066 3063 3059 3056 3052 3048 3044 3040 3035 3031 3027 3022 3018 3014 3010 3006 3002 2997 2994 2990 2987 2984 2981 2978 2974 2971 2967 2963 2959 2955 2951 2948 2945 2942 2938 2934 2930 2927 2924 2921 2919 2915 2911 2909 2909 2910 2911 2912 2912 2914 2916 2919 2923 2928 2932 2935 2939 2943 2945 2946 2949 2952 2954 2957 2959 2962 2965
3116 3113 3111 3108 3105 3103 3100 3097 3094 3091 3089 3086 3083 3080 3077 3074 3071 3067 3064 3060 3056 3053 3049 3046 3042 3038 3033 3029 3025 3020 3016 3013 3009 3004 3000 2996 2991 2987 2984 2980 2977 2974 2971 2967 2964 2960 2956 2952 2948 2944 2941 2937 2933 2929 2925 2922 2918 2914 2912 2908 2905 2903 2902 2902 2904 2906 2907 2907 2909 2912 2917 2922 2925 2929 2934 2939 2940 2942 2945 2947 2950 2952 2955 2958 2961
3114 3112 3109 3106 3104 3101 3098 3095 3092 3090 3087 3084 3081 3078 3075 3071 3068 3065 3062 3058 3054 3050 3047 3043 3039 3035 3031 3027 3023 3019 3014 3010 3006 3002 2998 2993 2990 2986 2982 2978 2974 2971 2968 2964 2961 2957 2953 2949 2945 2940 2936 2932 2928 2925 2920 2917 2913 2908 2905 2902 2899 2897 2895 2895 2897 2900 2901 2901 2902 2905 2911 2917 2920 2923 2929 2933 2935 2938 2940 2943 2946 2949 2951 2954 2957
3112 3110 3107 3105 3102 3099 3096 3094 3091 3088 3085 3082 3079 3076 3072 3069 3066 3063 3060 3056 3052 3049 3045 3041 3037 3033 3029 3025 3021 3017 3012 3008 3003 3000 2996 2991 2987 2983 2980 2976 2972 2968 2965 2961 2958 2954 2950 2946 2941 2937 2933 2929 2925 2922 2917 2912 2908 2903 2898 2896 2893 2891 2889 2889 2891 2894 2896 2897 2897 2900 2906 2912 2915 2919 2924 2929 2931 2934 2937 2939 2942 2945 2947 2950 2953
3110 3108 3105 3103 3100 3098 3095 3092 3089 3087 3083 3080 3077 3074 3071 3068 3065 3062 3058 3054 3051 3047 3043 3039 3035 3031 3027 3023 3019 3015 3010 3005 3001 2997 2993 2989 2985 2981 2977 2974 2970 2966 2963 2959 2956 2953 2948 2944 2939 2935 2931 2926 2922 2918 2914 2909 2904 2898 2894 2891 2888 2886 2884 2884 2886 2888 2890 2892 2893 2896 2902 2908 2912 2916 2921 2924 2927 2930 2933 2936 2938 2941 2944 2947 2950
3108 3106 3103 3101 3099 3096 3094 3091 3088 3085 3082 3079 3076 3073 3070 3067 3064 3060 3057 3053 3049 3045 3041 3037 3033 3029 3025 3021 3017 3012 3008 3003 2999 2995 2991 2987 2983 2979 2975 2971 2968 2965 2961 2957 2954 2950 2947 2942 2937 2933 2929 2924 2920 2915 2911 2906 2901 2895 2891 2887 2884 2882 2880 2880 2882 2883 2886 2888 2890 2893 2899 2905 2909 2913 2918 2921 2923 2926 2929 2932 2935 2938 2940 2943 2946
3106 3104 3102 3099 3097 3095 3092 3090 3087 3084 3082 3079 3076 3073 3069 3066 3062 3059 3055 3052 3048 3044 3041 3036 3032 3027 3023 3019 3015 3011 3006 3001 2997 2992 2988 2984 2980 2976 2972 2969 2966 2962 2959 2955 2951 2947 2944 2940 2936 2932 2927 2923 2919 2914 2909 2904 2899 2894 2889 2884 2881 2879 2877 2877 2878 2880 2882 2886 2888 2891 2897 2903 2907 2911 2915 2917 2919 2923 2926 2929 2932 2934 2937 2940 2943
3104 3102 3100 3098 3096 3093 3091 3089 3086 3083 3081 3078 3075 3072 3068 3065 3061 3058 3054 3051 3047 3043 3039 3035 3030 3026 3022 3017 3013 3009 3004 2999 2995 2990 2986 2982 2978 2973 2970 2966 2963 2960 2957 2954 2950 2946 2942 2939 2935 2930 2925 2922 2918 2913 2908 2902 2896 2891 2887 2883 2879 2876 2875 2875 2876 2878 2881 2884 2887 2890 2895 2900 2904 2908 2911 2914 2917 2920 2923 2926 2929 2932 2934 2937 2940
3102 3100 3098 3096 3094 3092 3089 3087 3085 3082 3080 3077 3074 3071 3067 3064 3060 3057 3053 3050 3046 3042 3038 3034 3029 3024 3020 3016 3012 3007 3003 2998 2993 2989 2984 2980 2975 2971 2967 2963 2960 2957 2954 2952 2949 2945 2941 2937 2933 2929 2924 2921 2918 2913 2907 2900 2893 2888 2885 2881 2878 2875 2874 2873 2875 2877 2880 2883 2886 2890 2894 2897 2901 2905 2908 2911 2914 2918 2921 2924 2927 2929 2932 2935 2937
3101 3099 3097 3095 3092 3090 3088 3086 3084 3081 3079 3075 3072 3069 3066 3062 3059 3055 3052 3048 3045 3041 3037 3033 3028 3024 3019 3015 3010 3006 3001 2997 2992 2987 2983 2978 2973 2969 2964 2960 2957 2955 2951 2948 2945 2942 2938 2935 2932 2929 2924 2921 2917 2913 2907 2899 2891 2887 2883 2880 2877 2875 2874 2873 2875 2877 2881 2884 2888 2891 2893 2894 2897 2901 2905 2909 2912 2915 2918 2922 2924 2927 2929 2932 2934
3099 3097 3095 3093 3092 3089 3087 3085 3082 3080 3077 3074 3070 3067 3064 3060 3057 3054 3050 3047 3043 3040 3036 3032 3027 3023 3018 3014 3009 3005 3000 2996 2991 2986 2981 2976 2972 2967 2962 2958 2955 2952 2948 2944 2940 2937 2934 2932 2930 2927 2923 2919 2916 2912 2907 2900 2892 2887 2884 2881 2878 2876 2875 2875 2877 2880 2884 2888 2890 2892 2893 2894 2896 2899 2903 2906 2910 2913 2916 2919 2922 2925 2927 2930 2932